Flag for U.S.A. Weather past 2 weeks in Fort Wayne, Indiana, U.S.A.

Now
81 °F

Passing clouds.


Feels Like: 81 °F
Forecast: 54 / 82 °F
Wind: 12 mph from Southeast

Location: Fort Wayne International Airport

Current Time: May 28, 2015 at 7:23:08 PM

Latest Report: May 28, 2015 at 5:54 PM


Visibility: 10 mi

Pressure: 30.15 "Hg

Humidity: 47%

Dew point: 59 °F

Location of Fort WayneLocation

Historic Weather in Fort Wayne — Graph

°F

Fort Wayne temperature yesterday

Maximum temperature yesterday: 76 °F (at 12:54 PM)
Minimum temperature yesterday: 63 °F (at 4:54 AM)
Average temperature yesterday: 69 °F

Past Weeks' High & Low Weather Summary

 TemperatureHumidityPressure
High82 °F (May 17, 4:54 PM)97% (May 15, 5:54 AM)30.45 "Hg (May 15, 5:54 AM)
Low37 °F (May 20, 3:54 AM)28% (May 22, 3:54 PM)29.88 "Hg (May 26, 8:54 PM)
Average64 °F70%30.12 "Hg
* Reported May 13 4:54 PM — May 28 4:54 PM, Fort Wayne, Weather by CustomWeather, © 2015

Note: Actual official high and low records may vary slightly from our data, if they occured in-between our weather recording intervals... More about our weather records

Advertising

Fort Wayne weather history for previous 24 hours

 ConditionsComfort  
Time TempWeatherWind HumidityBarometerVisibility
4:54 PM
Thu, May 28
81 °FScattered clouds.13 mph47%30.16 "Hg10 mi
3:54 PM80 °FScattered clouds.14 mph49%30.18 "Hg10 mi
2:54 PM78 °FScattered clouds.12 mph52%30.20 "Hg10 mi
1:54 PM76 °FScattered clouds.10 mph58%30.22 "Hg10 mi
12:54 PM75 °FScattered clouds.12 mph60%30.24 "Hg10 mi
11:54 AM73 °FScattered clouds.8 mph66%30.24 "Hg10 mi
10:54 AM70 °FPassing clouds.8 mph71%30.24 "Hg10 mi
9:54 AM68 °FPassing clouds.9 mph73%30.23 "Hg10 mi
8:54 AM64 °FPassing clouds.5 mph81%30.23 "Hg10 mi
7:54 AM60 °FScattered clouds.6 mph90%30.22 "Hg10 mi
6:54 AM56 °FPassing clouds.No wind93%30.21 "Hg9 mi
5:54 AM54 °FPassing clouds.6 mph97%30.18 "Hg10 mi
4:54 AM56 °FClear.5 mph97%30.19 "Hg10 mi
3:54 AM58 °FPassing clouds.5 mph93%30.17 "Hg10 mi
2:54 AM56 °FPassing clouds.No wind93%30.17 "Hg10 mi
1:54 AM59 °FPassing clouds.No wind90%30.15 "Hg10 mi
12:54 AM60 °FPassing clouds.3 mph90%30.13 "Hg10 mi
11:54 PM
Wed, May 27
64 °FPassing clouds.3 mph78%30.11 "Hg10 mi
10:54 PM67 °FPassing clouds.6 mph76%30.09 "Hg10 mi
9:54 PM68 °FScattered clouds.6 mph73%30.06 "Hg10 mi
8:54 PM69 °FPartly sunny.7 mph84%30.02 "Hg10 mi
7:54 PM72 °FPartly sunny.6 mph73%30.02 "Hg10 mi
Weather by CustomWeather, © 2015

See weather overviewHow to use our weather pages